Simultaneous Nadir Overpasses (SNOs) Predictions

Prediction of SNOs between AQUA and GOES-15 Satellite Orbit:

Table of predicted SNOs for the next 14.0 days since TLE Epoch: 1/8/2022
Index Date Time (AQUA) AQUA Lat,Lon GOES-15 Lat,Lon Distance(km) Time Diff (sec)
1 01/09/2022 10:01:50 -0.46,-126.46 -0.05,-128.30 209.19 80
2 01/09/2022 22:23:14 -0.66,-131.65 0.06,-128.31 380.36 80
3 01/11/2022 22:11:03 -0.02,-128.69 0.05,-128.33 40.64 80
4 01/13/2022 21:58:52 0.63,-125.73 0.04,-128.35 298.55 80
5 01/14/2022 10:20:07 0.51,-130.88 -0.05,-128.36 287.18 80
6 01/16/2022 10:07:56 -0.15,-127.92 -0.04,-128.37 51.26 80
7 01/18/2022 09:55:44 -0.75,-124.95 -0.03,-128.38 389.14 80
8 01/18/2022 22:17:08 -0.36,-130.14 0.04,-128.38 200.99 80
9 01/20/2022 22:04:57 0.31,-127.19 0.04,-128.38 136.47 80
10 01/21/2022 10:26:12 0.82,-132.34 -0.04,-128.39 449.54 80
